Weather History for Fergus Falls, MN

Change the Weather History Date:

Friday, January 4, 2013

  Actual Average Record
Temperature  
Mean Temperature 14 °F -  
Max Temperature 21 °F 14 °F 42 °F (2012)
Min Temperature 8 °F -3 °F -32 °F (1968)
Degree Days  
Heating Degree Days 50    
Moisture  
Dew Point 9 °F    
Average Humidity 83    
Maximum Humidity 100    
Minimum Humidity 68    
Precipitation  
Precipitation 0.00 in - - ()
Sea Level Pressure  
Sea Level Pressure 30.04 in    
Wind  
Wind Speed 4 mph (WNW)    
Max Wind Speed 8 mph    
Max Gust Speed -    
Visibility 10 miles    
Events      
Averages and records for this station are not official NWS values.
T = Trace of Precipitation, MM = Missing Value Source: NWS Daily Summary

Daily Weather History Graph

Daily Weather History Graph

Search for Another Location

Airport:

Trip Planner

Search our weather history database for the weather conditions in past years. The results will help you decide how hot, cold, wet, or windy it might be!

Date:

Astronomy

Jan. 04, 2013 Rise Set
Actual Time 8:07 AM CST 4:52 PM CST
Civil Twilight 7:33 AM CST 5:26 PM CST
Nautical Twilight 6:55 AM CST 6:04 PM CST
Astronomical Twilight 6:18 AM CST 6:41 PM CST
Moon No Moon Rise 11:24 AM CST (1/4)
Length of Visible Light 9h 53m
Length of Day
8h 44m
Waning Gibbous, 55% of the Moon is Illuminated
Jan 4
Waning Gibbous
Jan 4
Last Quarter
Jan 11
New
Jan 18
First Quarter
Jan 26
Full

Hourly Weather History & Observations

Time (CST) Temp. Windchill Dew Point Humidity Pressure Visibility Wind Dir Wind Speed Gust Speed Precip Events Conditions
12:13 AM 10.4 °F 0.8 °F 6.8 °F 85% 30.00 in 10.0 mi SSW 5.8 mph - N/A   Clear
12:33 AM 10.4 °F -0.4 °F 6.8 °F 85% 30.00 in 10.0 mi SSW 6.9 mph - N/A   Clear
12:53 AM 10.4 °F -0.4 °F 6.8 °F 85% 29.99 in 10.0 mi SW 6.9 mph - N/A   Clear
1:13 AM 10.4 °F 0.8 °F 8.6 °F 92% 29.99 in 10.0 mi SW 5.8 mph - N/A   Clear
1:33 AM 12.2 °F 2.9 °F 8.6 °F 85% 29.98 in 10.0 mi WSW 5.8 mph - N/A   Clear
1:53 AM 12.2 °F 1.7 °F 8.6 °F 85% 29.99 in 10.0 mi West 6.9 mph - N/A   Clear
2:13 AM 10.4 °F - 6.8 °F 85% 29.99 in 10.0 mi Calm Calm - N/A   Clear
2:33 AM 12.2 °F 6.1 °F 8.6 °F 85% 29.99 in 10.0 mi WSW 3.5 mph - N/A   Clear
2:53 AM 12.2 °F 6.1 °F 8.6 °F 85% 29.99 in 10.0 mi WSW 3.5 mph - N/A   Clear
3:13 AM 12.2 °F 6.1 °F 8.6 °F 85% 29.99 in 10.0 mi WSW 3.5 mph - N/A   Clear
3:33 AM 12.2 °F 6.1 °F 8.6 °F 85% 29.99 in 10.0 mi West 3.5 mph - N/A   Clear
3:53 AM 10.4 °F 4.0 °F 8.6 °F 92% 30.00 in 10.0 mi West 3.5 mph - N/A   Clear
4:13 AM 10.4 °F 4.0 °F 6.8 °F 85% 30.00 in 10.0 mi SW 3.5 mph - N/A   Clear
4:33 AM 10.4 °F - 6.8 °F 85% 29.99 in 10.0 mi Calm Calm - N/A   Clear
4:53 AM 12.2 °F - 8.6 °F 85% 30.00 in 10.0 mi Calm Calm - N/A   Clear
5:13 AM 12.2 °F 6.1 °F 8.6 °F 85% 30.00 in 10.0 mi West 3.5 mph - N/A   Clear
5:33 AM 12.2 °F 4.3 °F 8.6 °F 85% 30.00 in 10.0 mi WNW 4.6 mph - N/A   Clear
5:53 AM 12.2 °F 2.9 °F 8.6 °F 85% 30.01 in 10.0 mi WNW 5.8 mph - N/A   Clear
6:13 AM 10.4 °F 0.8 °F 6.8 °F 85% 30.01 in 10.0 mi NW 5.8 mph - N/A   Clear
6:33 AM 12.2 °F 2.9 °F 8.6 °F 85% 30.02 in 10.0 mi NW 5.8 mph - N/A   Clear
6:53 AM 12.2 °F 2.9 °F 6.8 °F 79% 30.02 in 10.0 mi WNW 5.8 mph - N/A   Clear
7:13 AM 12.2 °F 2.9 °F 6.8 °F 79% 30.03 in 10.0 mi WNW 5.8 mph - N/A   Clear
7:33 AM 12.2 °F 2.9 °F 6.8 °F 79% 30.03 in 10.0 mi WNW 5.8 mph - N/A   Clear
7:53 AM 10.4 °F -0.4 °F 6.8 °F 85% 30.03 in 10.0 mi WNW 6.9 mph - N/A   Clear
8:12 AM 10.4 °F 0.8 °F 6.8 °F 85% 30.04 in 10.0 mi WNW 5.8 mph - N/A   Clear
8:33 AM 10.4 °F 0.8 °F 6.8 °F 85% 30.04 in 10.0 mi WNW 5.8 mph - N/A   Clear
8:53 AM 12.2 °F 4.3 °F 6.8 °F 79% 30.05 in 10.0 mi WNW 4.6 mph - N/A   Clear
9:14 AM 12.2 °F 6.1 °F 6.8 °F 79% 30.06 in 10.0 mi NW 3.5 mph - N/A   Clear
9:33 AM 12.2 °F 4.3 °F 6.8 °F 79% 30.07 in 10.0 mi NW 4.6 mph - N/A   Clear
9:53 AM 12.2 °F 4.3 °F 6.8 °F 79% 30.08 in 10.0 mi WNW 4.6 mph - N/A   Clear
10:13 AM 12.2 °F 6.1 °F 6.8 °F 79% 30.08 in 10.0 mi WNW 3.5 mph - N/A   Clear
10:33 AM 14.0 °F - 8.6 °F 79% 30.08 in 10.0 mi Calm Calm - N/A   Clear
10:53 AM 15.8 °F - 8.6 °F 73% 30.08 in 10.0 mi Calm Calm - N/A   Clear
11:13 AM 15.8 °F 10.2 °F 8.6 °F 73% 30.08 in 10.0 mi NW 3.5 mph - N/A   Clear
11:33 AM 15.8 °F 10.2 °F 8.6 °F 73% 30.08 in 10.0 mi NNW 3.5 mph - N/A   Clear
11:53 AM 17.6 °F 9.3 °F 10.4 °F 73% 30.07 in 10.0 mi NW 5.8 mph - N/A   Clear
12:13 PM 17.6 °F 10.7 °F 10.4 °F 73% 30.07 in 10.0 mi NW 4.6 mph - N/A   Clear
12:33 PM 19.4 °F 11.5 °F 10.4 °F 68% 30.06 in 10.0 mi NW 5.8 mph - N/A   Clear
12:53 PM 19.4 °F 12.8 °F 12.2 °F 74% 30.06 in 10.0 mi NW 4.6 mph - N/A   Clear
1:13 PM 19.4 °F 12.8 °F 12.2 °F 74% 30.05 in 10.0 mi NW 4.6 mph - N/A   Clear
1:33 PM 19.4 °F 10.4 °F 12.2 °F 74% 30.05 in 10.0 mi NW 6.9 mph - N/A   Clear
1:53 PM 19.4 °F 11.5 °F 14.0 °F 80% 30.05 in 10.0 mi NW 5.8 mph - N/A   Clear
2:13 PM 21.2 °F 14.9 °F 14.0 °F 74% 30.06 in 10.0 mi WNW 4.6 mph - N/A   Clear
2:33 PM 19.4 °F 12.8 °F 14.0 °F 80% 30.06 in 10.0 mi WNW 4.6 mph - N/A   Clear
2:53 PM 21.2 °F 16.4 °F 15.8 °F 80% 30.06 in 10.0 mi WNW 3.5 mph - N/A   Clear
3:13 PM 21.2 °F - 15.8 °F 80% 30.06 in 10.0 mi Calm Calm - N/A   Clear
3:33 PM 21.2 °F - 15.8 °F 80% 30.06 in 10.0 mi Calm Calm - N/A   Clear
3:53 PM 21.2 °F - 14.0 °F 74% 30.06 in 10.0 mi Calm Calm - N/A   Clear
4:13 PM 21.2 °F - 12.2 °F 68% 30.06 in 10.0 mi Calm Calm - N/A   Clear
4:53 PM 19.4 °F - 14.0 °F 80% 30.07 in 10.0 mi Calm Calm - N/A   Clear
5:13 PM 15.8 °F - 10.4 °F 79% 30.08 in 10.0 mi Calm Calm - N/A   Clear
5:33 PM 15.8 °F - 12.2 °F 86% 30.08 in 10.0 mi Calm Calm - N/A   Clear
5:53 PM 17.6 °F - 14.0 °F 86% 30.07 in 10.0 mi Calm Calm - N/A   Clear
6:13 PM 14.0 °F - 10.4 °F 86% 30.08 in 10.0 mi Calm Calm - N/A   Clear
6:33 PM 15.8 °F - 12.2 °F 86% 30.08 in 10.0 mi Calm Calm - N/A   Clear
7:13 PM 15.8 °F - 12.2 °F 86% 30.07 in 10.0 mi Calm Calm - N/A   Clear
7:33 PM 14.0 °F 6.5 °F 10.4 °F 86% 30.07 in 10.0 mi SSE 4.6 mph - N/A   Clear
7:53 PM 12.2 °F 6.1 °F 10.4 °F 92% 30.07 in 10.0 mi SSE 3.5 mph - N/A   Clear
8:13 PM 12.2 °F - 10.4 °F 92% 30.07 in 10.0 mi Calm Calm - N/A   Clear
8:33 PM 12.2 °F 4.3 °F 10.4 °F 92% 30.06 in 10.0 mi East 4.6 mph - N/A   Clear
8:53 PM 10.4 °F 4.0 °F 8.6 °F 92% 30.07 in 10.0 mi ENE 3.5 mph - N/A   Clear
9:13 PM 12.2 °F - 10.4 °F 92% 30.07 in 10.0 mi Calm Calm - N/A   Clear
9:33 PM 10.4 °F 2.2 °F 10.4 °F 100% 30.06 in 10.0 mi SE 4.6 mph - N/A   Clear
9:53 PM 10.4 °F 2.2 °F 8.6 °F 92% 30.06 in 10.0 mi ENE 4.6 mph - N/A   Clear
10:13 PM 10.4 °F 0.8 °F 6.8 °F 85% 30.06 in 10.0 mi East 5.8 mph - N/A   Clear
10:32 PM 10.4 °F 2.2 °F 8.6 °F 92% 30.05 in 10.0 mi ESE 4.6 mph - N/A   Clear
10:53 PM 8.6 °F -3.7 °F 6.8 °F 92% 30.02 in 10.0 mi SE 8.1 mph - N/A   Clear
11:13 PM 12.2 °F - 8.6 °F 85% 30.04 in 10.0 mi Calm Calm - N/A   Clear
11:34 PM 12.2 °F - 10.4 °F 92% 30.04 in 10.0 mi Calm Calm - N/A   Clear
11:53 PM 10.4 °F - 6.8 °F 85% 30.04 in 10.0 mi Calm Calm - N/A   Clear